Terug naar catalogus

COSMOS 2334

ActiefMilitairPO
NORAD 24304·PAYLOAD·🇷🇺 Russia

Gelanceerd Sep 5, 1996 vanaf Plesetsk Cosmodrome

Loading…

Volgende Passages (komende 24 uur)

TLE

VersSource: Space-Track

Epoch: Sep 14, 2026, 14:53 UTC

1 24304U 96052A   26257.62023380  .00000053  00000-0  39960-4 0  9990
2 24304  82.9381  14.5458 0030047  15.7868 355.3765 13.73817760504918

Volg COSMOS 2334 in realtime met AllMySat

Download on the App Store